[[{"header":{"parameterUnit":"m.s-1","parameterCategory":1,"la1":30.2991,"la2":30.254,"lo1":-89.0895,"lo2":-89.0444,"dy":0.0017,"dx":0.0017,"nx":28,"ny":28,"refTime":"2025-09-06T03:00:00:Z","depth":0,"parameterNumber":2,"parameterNumberName":"U-component_of_WINDS"},"data":[0,0,0,0,0,0,0,0,0,0,0,0,0,0,0,0,0,0,0,0,0,0,0,0,0,0,0,0,0,0,0,0,0,0,0,0,0,0,0,0,0,0,0,0,0,0,0,0,0,0,0,0,0,0,0,0,0,0,-1.4501,-1.4502,0,-1.4571,-1.4572,-1.4572,-1.4532,-1.453,-1.4528,-1.4526,-1.4598,-1.4602,-1.4606,0,0,0,0,0,0,0,0,0,0,0,0,0,-1.4333,-1.4336,-1.4501,-1.4502,-1.4503,-1.4571,-1.4572,-1.4573,-1.4532,-1.453,-1.4527,-1.4525,-1.4597,-1.4601,-1.4606,0,0,0,0,0,0,0,0,0,0,0,0,0,-1.4405,-1.4337,-1.4501,-1.4491,-1.4491,-1.4571,-1.4572,-1.4573,-1.4533,-1.453,-1.4527,-1.4524,-1.4595,-1.4601,-1.4607,-1.4701,0,0,-1.4624,-1.4626,0,0,0,0,0,0,0,0,-1.4401,-1.4411,-1.4492,-1.4492,-1.4492,-1.454,-1.4539,-1.4616,-1.4533,-1.4517,-1.4526,-1.4523,-1.4581,-1.4588,-1.4607,-1.4704,-1.4707,-1.4624,-1.4628,-1.463,-1.4632,0,0,0,0,0,0,0,-1.4396,-1.4408,-1.4529,-1.4493,-1.4493,-1.4483,-1.449,-1.4553,-1.4565,-1.4518,-1.4515,-1.4524,-1.4581,-1.4602,-1.4609,-1.4708,-1.4624,-1.4629,-1.4633,-1.4635,-1.4884,-1.4887,0,0,0,0,0,0,-1.4391,-1.4404,-1.4527,-1.4531,-1.4438,-1.4488,-1.4496,-1.4527,-1.4564,-1.4567,-1.4526,-1.4522,-1.4594,-1.4602,-1.4611,-1.4724,-1.463,-1.4635,-1.4639,-1.4881,-1.4885,-1.4889,0,0,0,0,0,0,-1.4388,-1.4403,-1.4524,-1.4467,-1.4481,-1.4494,-1.453,-1.453,-1.4552,-1.457,-1.4572,-1.4546,-1.4592,-1.4603,-1.4678,-1.4726,-1.4638,-1.4643,-1.4877,-1.4882,-1.4887,-1.495,0,0,0,0,0,0,-1.4383,-1.4402,-1.4438,-1.4468,-1.4484,-1.459,-1.4533,-1.4534,-1.4561,-1.4556,-1.4589,-1.4592,-1.459,-1.467,-1.4684,-1.4732,-1.4647,-1.4873,-1.4879,-1.4885,-1.4943,-1.4956,-1.4967,0,0,0,0,0,-1.4377,-1.4453,-1.444,-1.4455,-1.453,-1.4593,-1.4603,-1.4599,-1.4565,-1.4602,-1.4613,-1.4591,-1.4718,-1.4678,-1.4693,-1.4744,-1.487,-1.4878,-1.4885,-1.4938,-1.4953,-1.4966,0,0,0,0,0,0,-1.4429,-1.4457,-1.4443,-1.453,-1.456,-1.4586,-1.4632,-1.4615,-1.4655,-1.4649,-1.4642,-1.465,-1.4729,-1.4743,-1.4699,-1.4836,-1.4789,-1.4799,-1.4824,-1.4839,-1.485,-1.4846,-1.4652,0,0,0,0,0,-1.4451,-1.45,-1.4521,-1.4596,-1.4612,-1.4619,-1.4647,-1.4641,-1.4671,-1.4684,-1.4701,-1.4731,-1.4778,-1.4809,-1.4853,-1.4944,-1.4951,-1.4986,-1.4998,-1.5007,-1.5017,-1.5066,-1.5082,-1.4912,-1.4912,-1.4912,0,0,-1.4496,-1.4517,-1.4549,-1.4607,-1.4629,-1.468,-1.463,-1.4686,-1.4724,-1.4692,-1.4765,-1.4778,-1.4811,-1.4895,-1.4933,-1.491,-1.5065,-1.5017,-1.5024,-1.5029,-1.5076,-1.5092,-1.5106,-1.4917,-1.4917,-1.4916,0,0,-1.4605,-1.4626,-1.469,-1.4713,-1.4747,-1.4751,-1.4767,-1.4795,-1.4803,-1.4875,-1.4852,-1.4896,-1.4977,-1.5001,-1.5024,-1.514,-1.5121,-1.5154,-1.5216,-1.5264,-1.5278,-1.529,-1.5332,-1.5347,-1.5164,-1.5164,-1.5164,0,-1.4657,-1.4733,-1.4726,-1.4784,-1.481,-1.4782,-1.4848,-1.487,-1.4917,-1.4936,-1.4909,-1.5008,-1.5029,-1.5118,-1.5146,-1.5165,-1.5183,-1.5152,-1.5276,-1.5288,-1.5299,-1.5339,-1.5355,-1.5168,-1.5167,-1.5167,-1.5167,0,-1.4796,-1.4849,-1.4897,-1.4942,-1.4973,-1.5035,-1.5037,-1.5069,-1.506,-1.5067,-1.514,-1.5163,-1.5211,-1.5232,-1.5224,-1.5319,-1.5304,-1.5277,-1.523,-1.5319,-1.5357,-1.5372,-1.5174,-1.5172,-1.5171,-1.517,0,0,-1.4942,-1.498,-1.4999,-1.5018,-1.5052,-1.5093,-1.5152,-1.5199,-1.5227,-1.5259,-1.5309,-1.5377,-1.5351,-1.5378,-1.5372,-1.5414,-1.5504,-1.5381,-1.5382,-1.5404,-1.5611,-1.5632,-1.565,-1.5491,-1.5494,-1.5496,-1.5609,0,-1.5053,-1.5158,-1.5152,-1.525,-1.5298,-1.5272,-1.5323,-1.535,-1.5357,-1.5399,-1.5407,-1.5456,-1.5418,-1.5434,-1.5474,-1.5485,-1.5546,-1.5476,-1.5538,-1.554,-1.5532,-1.567,-1.5693,-1.5798,-1.5623,-1.5625,-1.5627,0,-1.5198,-1.5235,-1.5337,-1.5363,-1.5383,-1.543,-1.5472,-1.5512,-1.5541,-1.5543,-1.5571,-1.5558,-1.5618,-1.5567,-1.565,-1.5602,-1.5627,-1.5635,-1.5639,-1.5646,-1.559,-1.5681,-1.5831,-1.5848,-1.565,-1.5648,-1.5647,0,-1.5295,-1.537,-1.5441,-1.5458,-1.549,-1.5524,-1.5539,-1.5565,-1.5592,-1.5628,-1.5646,-1.5688,-1.5712,-1.5745,-1.5743,-1.5706,-1.5827,-1.5776,-1.583,-1.5831,-1.5859,-1.5857,-1.6016,-1.5872,-1.5872,-1.5872,-1.5871,0,-1.5421,-1.5485,-1.5485,-1.5529,-1.5599,-1.5592,-1.5662,-1.5673,-1.5696,-1.5741,-1.572,-1.5763,-1.5757,-1.58,-1.5799,-1.5867,-1.5878,-1.5881,-1.5881,-1.5884,-1.5884,-1.5901,-1.5894,-1.5876,-1.5875,-1.5874,-1.5873,0,-1.5543,-1.5545,-1.5621,-1.5644,-1.5651,-1.5702,-1.5722,-1.5763,-1.5768,-1.5826,-1.5839,-1.5846,-1.5895,-1.5896,-1.5953,-1.5952,-1.6035,-1.6026,-1.6026,-1.6025,-1.6079,-1.6075,-1.6256,-1.628,-1.6119,-1.6121,-1.6122,0,-1.5624,-1.5672,-1.5701,-1.5729,-1.5746,-1.5793,-1.582,-1.5814,-1.5844,-1.5879,-1.5917,-1.5963,-1.6001,-1.6081,-1.6091,-1.6134,-1.6126,-1.6186,-1.6132,-1.6134,-1.6128,-1.6126,-1.613,-1.6198,-1.6199,-1.6201,-1.6202,0,-1.5768,-1.5766,-1.5807,-1.5849,-1.5882,-1.5915,-1.5945,-1.5969,-1.5966,-1.6,-1.605,-1.6079,-1.6136,-1.6183,-1.6224,-1.6239,-1.6221,-1.6219,-1.6234,-1.6239,-1.6237,-1.6239,-1.6056,-1.6215,-1.6214,-1.6213,-1.6212,-1.6212,-1.5873,-1.5914,-1.594,-1.5987,-1.6008,-1.6036,-1.6076,-1.6085,-1.6126,-1.6172,-1.6165,-1.6221,-1.6247,-1.63,-1.6318,-1.6361,-1.634,-1.6362,-1.6368,-1.6374,-1.638,-1.6229,-1.6369,-1.6368,-1.6368,-1.6368,-1.6367,0,-1.6016,-1.6031,-1.6074,-1.6116,-1.6152,-1.613,-1.6161,-1.6193,-1.6242,-1.6268,-1.6305,-1.6361,-1.6406,-1.642,-1.6463,-1.6495,-1.6487,-1.6507,-1.6505,-1.6509,-1.6396,-1.6379,-1.6512,-1.6512,-1.6512,-1.6512,-1.6512,-1.6512,-1.6095,-1.6165,-1.6166,-1.6245,-1.6259,-1.6314,-1.6334,-1.6359,-1.6379,-1.6444,-1.6481,-1.6489,-1.651,-1.6554,-1.6594,-1.6596,-1.6614,-1.6637,-1.6636,-1.6531,-1.6517,-1.6503,-1.6487,-1.664,-1.664,-1.6745,-1.6746,-1.6747]},{"header":{"parameterUnit":"m.s-1","parameterCategory":1,"la1":30.2991,"la2":30.254,"lo1":-89.0895,"lo2":-89.0444,"dy":0.0017,"dx":0.0017,"nx":28,"ny":28,"refTime":"2025-09-06T03:00:00:Z","depth":0,"parameterNumber":3,"parameterNumberName":"V-component_of_WINDS"},"data":[0,0,0,0,0,0,0,0,0,0,0,0,0,0,0,0,0,0,0,0,0,0,0,0,0,0,0,0,0,0,0,0,0,0,0,0,0,0,0,0,0,0,0,0,0,0,0,0,0,0,0,0,0,0,0,0,0,0,-6.0602,-6.0603,0,-6.0697,-6.0698,-6.0699,-6.0635,-6.0632,-6.0629,-6.0626,-6.0717,-6.0722,-6.0727,0,0,0,0,0,0,0,0,0,0,0,0,0,-6.0359,-6.0364,-6.0602,-6.0603,-6.0604,-6.0697,-6.0698,-6.0699,-6.0635,-6.0632,-6.0628,-6.0625,-6.0716,-6.0722,-6.0728,0,0,0,0,0,0,0,0,0,0,0,0,0,-6.046,-6.0365,-6.0602,-6.0584,-6.0583,-6.0696,-6.0698,-6.07,-6.0636,-6.0632,-6.0627,-6.0623,-6.0714,-6.0721,-6.0729,-6.0863,0,0,-6.0752,-6.0756,0,0,0,0,0,0,0,0,-6.0454,-6.0469,-6.0585,-6.0585,-6.0584,-6.065,-6.0646,-6.0754,-6.0637,-6.0616,-6.0626,-6.0621,-6.0698,-6.0707,-6.0734,-6.0868,-6.0872,-6.0753,-6.0758,-6.0761,-6.0763,0,0,0,0,0,0,0,-6.0447,-6.0464,-6.0639,-6.0587,-6.0586,-6.0569,-6.0578,-6.0666,-6.068,-6.0617,-6.0613,-6.0625,-6.0697,-6.0727,-6.0735,-6.0873,-6.0753,-6.076,-6.0764,-6.0767,-6.1121,-6.1125,0,0,0,0,0,0,-6.0443,-6.0459,-6.0636,-6.0642,-6.0508,-6.0577,-6.0587,-6.0633,-6.0679,-6.0682,-6.0629,-6.0622,-6.0716,-6.0727,-6.0738,-6.0898,-6.0761,-6.0768,-6.0773,-6.1116,-6.1122,-6.1127,0,0,0,0,0,0,-6.0438,-6.0459,-6.0632,-6.0549,-6.057,-6.0585,-6.0637,-6.0637,-6.0667,-6.0688,-6.0689,-6.0657,-6.0713,-6.0728,-6.0833,-6.0901,-6.0772,-6.0779,-6.111,-6.1118,-6.1124,-6.122,0,0,0,0,0,0,-6.0431,-6.0458,-6.0511,-6.0551,-6.0575,-6.0728,-6.0641,-6.0642,-6.0681,-6.0673,-6.0715,-6.0717,-6.071,-6.0822,-6.0841,-6.0909,-6.0785,-6.1104,-6.1114,-6.1122,-6.1211,-6.123,-6.1246,0,0,0,0,0,-6.0423,-6.0533,-6.0514,-6.0535,-6.0642,-6.0732,-6.0745,-6.0737,-6.0687,-6.0739,-6.0752,-6.0716,-6.0891,-6.0833,-6.0854,-6.0926,-6.11,-6.1111,-6.1121,-6.1203,-6.1226,-6.1245,0,0,0,0,0,0,-6.0498,-6.0538,-6.0517,-6.0644,-6.0685,-6.0721,-6.0786,-6.0761,-6.0816,-6.0805,-6.0791,-6.08,-6.0911,-6.0928,-6.0864,-6.1058,-6.0987,-6.1002,-6.1042,-6.1064,-6.1081,-6.1074,-6.0791,0,0,0,0,0,-6.053,-6.0601,-6.0631,-6.074,-6.0762,-6.0771,-6.081,-6.08,-6.0841,-6.0858,-6.0878,-6.0918,-6.0982,-6.1024,-6.1083,-6.1213,-6.1221,-6.1273,-6.129,-6.1304,-6.1317,-6.1386,-6.1409,-6.1162,-6.1162,-6.1162,0,0,-6.0595,-6.0626,-6.0672,-6.0756,-6.0787,-6.086,-6.0786,-6.0866,-6.0919,-6.0869,-6.097,-6.0987,-6.103,-6.1148,-6.1201,-6.1166,-6.1387,-6.1318,-6.1329,-6.1334,-6.14,-6.1423,-6.1444,-6.1169,-6.1168,-6.1167,0,0,-6.0751,-6.0783,-6.0877,-6.0909,-6.0958,-6.0963,-6.0985,-6.1025,-6.1035,-6.1137,-6.11,-6.1162,-6.1272,-6.1304,-6.1335,-6.1504,-6.1472,-6.1523,-6.1614,-6.1681,-6.17,-6.1718,-6.1777,-6.1799,-6.1536,-6.1537,-6.1537,0,-6.0826,-6.0937,-6.0928,-6.1011,-6.1049,-6.1009,-6.1103,-6.1134,-6.1198,-6.1224,-6.1185,-6.1322,-6.1348,-6.1473,-6.1514,-6.1541,-6.1564,-6.1518,-6.1699,-6.1716,-6.1732,-6.1788,-6.1811,-6.1543,-6.1542,-6.1541,-6.1541,0,-6.1026,-6.1103,-6.1172,-6.1238,-6.1283,-6.1372,-6.1374,-6.1421,-6.1407,-6.1415,-6.1518,-6.1549,-6.1613,-6.1642,-6.1629,-6.1765,-6.1742,-6.1701,-6.1629,-6.1762,-6.1814,-6.1836,-6.1551,-6.1549,-6.1547,-6.1546,0,0,-6.1232,-6.1292,-6.1318,-6.1347,-6.1397,-6.1455,-6.154,-6.1606,-6.1646,-6.1691,-6.1761,-6.1856,-6.1818,-6.1853,-6.1843,-6.1902,-6.2032,-6.1854,-6.1854,-6.1885,-6.2183,-6.2213,-6.2238,-6.2012,-6.2016,-6.2019,-6.2179,0,-6.1391,-6.1543,-6.1537,-6.1678,-6.1748,-6.171,-6.1785,-6.1822,-6.1832,-6.1891,-6.1901,-6.1969,-6.1915,-6.1935,-6.1992,-6.2005,-6.2092,-6.1993,-6.2075,-6.2078,-6.2065,-6.2266,-6.2298,-6.2448,-6.22,-6.2203,-6.2206,0,-6.1597,-6.1652,-6.18,-6.184,-6.1869,-6.1936,-6.1995,-6.2053,-6.2094,-6.2097,-6.2136,-6.2116,-6.22,-6.2127,-6.2242,-6.2175,-6.2208,-6.2219,-6.2225,-6.2231,-6.215,-6.2277,-6.2495,-6.2518,-6.2238,-6.2236,-6.2233,0,-6.1732,-6.1842,-6.1945,-6.1971,-6.202,-6.2068,-6.209,-6.2127,-6.2167,-6.2217,-6.2243,-6.2302,-6.2334,-6.238,-6.2375,-6.2323,-6.2492,-6.2418,-6.2495,-6.2495,-6.2532,-6.2529,-6.2758,-6.2554,-6.2554,-6.2554,-6.2553,0,-6.191,-6.2002,-6.2007,-6.207,-6.2171,-6.2163,-6.2262,-6.2279,-6.2312,-6.2377,-6.2347,-6.2407,-6.2398,-6.2458,-6.2455,-6.255,-6.2565,-6.2568,-6.2566,-6.2571,-6.257,-6.2592,-6.2581,-6.256,-6.2558,-6.2557,-6.2556,0,-6.2077,-6.2085,-6.2194,-6.2232,-6.2244,-6.2317,-6.2347,-6.2406,-6.2414,-6.2496,-6.2514,-6.2526,-6.2595,-6.2595,-6.2673,-6.2671,-6.2787,-6.2773,-6.2774,-6.2771,-6.2847,-6.284,-6.3097,-6.3129,-6.2906,-6.2908,-6.291,0,-6.219,-6.226,-6.2306,-6.2348,-6.2374,-6.2442,-6.2482,-6.2476,-6.2519,-6.2571,-6.2624,-6.269,-6.2743,-6.2855,-6.2869,-6.2928,-6.2915,-6.3001,-6.2924,-6.2926,-6.2915,-6.2911,-6.2917,-6.3016,-6.3018,-6.302,-6.3022,0,-6.2389,-6.239,-6.2451,-6.2513,-6.2563,-6.2612,-6.2656,-6.2691,-6.269,-6.2739,-6.2811,-6.2852,-6.2933,-6.2999,-6.3056,-6.3076,-6.3049,-6.3046,-6.3067,-6.3072,-6.3069,-6.3071,-6.2815,-6.304,-6.3038,-6.3037,-6.3036,-6.3035,-6.2533,-6.2593,-6.2635,-6.2704,-6.2737,-6.2779,-6.2837,-6.2852,-6.2912,-6.2979,-6.2971,-6.305,-6.3088,-6.3162,-6.3188,-6.3248,-6.3218,-6.3248,-6.3255,-6.3263,-6.3271,-6.3061,-6.3258,-6.3258,-6.3257,-6.3257,-6.3256,0,-6.273,-6.2755,-6.2819,-6.2883,-6.2936,-6.2908,-6.2956,-6.3002,-6.3073,-6.3111,-6.3165,-6.3246,-6.331,-6.3329,-6.339,-6.3434,-6.3423,-6.3451,-6.3447,-6.3452,-6.3295,-6.3271,-6.3459,-6.3459,-6.3459,-6.3458,-6.3458,-6.3458,-6.2839,-6.2939,-6.2945,-6.3061,-6.3085,-6.3164,-6.3193,-6.3231,-6.3262,-6.3355,-6.3409,-6.3422,-6.3452,-6.3515,-6.3572,-6.3576,-6.3599,-6.3632,-6.363,-6.3483,-6.3463,-6.3443,-6.342,-6.3637,-6.3637,-6.3782,-6.3783,-6.3784]}]]